SUD014 ZULS-ZGGG

Flight info

Callsign SUD014
Flight time 4h 1m
Altitude 35100
Route LXA W500 DM W9 KDJ/K0832S1130 W9 CZH B213 CTU W237 IDBOR B330 KWE W181 DUDIT A599 GYA GYA7
Aircraft A320/M-SDFGHILORVWY/S

Departure

Time 2026-04-22 23:59
Airport Lhasa Gonggar International Airport (ZULS)

Arrival

Time 2026-04-23 04:00
Airport Guangzhou Baiyun International Airport (ZGGG)
Time Latitude Longitude Altitude Speed Heading
2026-04-22 23:59 29.28100 91.21967 15343 ft 361 kts 92°
2026-04-22 23:59 29.27968 91.24910 15467 ft 378 kts 93°
2026-04-22 23:59 29.27826 91.27972 15729 ft 389 kts 93°
2026-04-23 00:00 29.27529 91.34243 16682 ft 398 kts 92°
2026-04-23 00:00 29.27430 91.36351 17025 ft 401 kts 92°
2026-04-23 00:00 29.27228 91.40644 17706 ft 406 kts 92°
2026-04-23 00:01 29.27075 91.43883 18216 ft 409 kts 92°
2026-04-23 00:01 29.26920 91.47154 18687 ft 413 kts 92°
2026-04-23 00:01 29.26765 91.50447 19135 ft 416 kts 91°
2026-04-23 00:01 29.26608 91.53771 19599 ft 419 kts 91°
2026-04-23 00:02 29.26447 91.57118 20037 ft 423 kts 91°
2026-04-23 00:02 29.26338 91.59358 20337 ft 426 kts 91°
2026-04-23 00:02 29.26176 91.62755 20785 ft 429 kts 90°
2026-04-23 00:02 29.26014 91.66175 21227 ft 432 kts 90°
2026-04-23 00:03 29.25850 91.69617 21664 ft 435 kts 90°
2026-04-23 00:03 29.25681 91.73090 22089 ft 438 kts 90°
2026-04-23 00:03 29.25508 91.76581 22507 ft 441 kts 89°
2026-04-23 00:03 29.25362 91.80091 22916 ft 443 kts 88°
2026-04-23 00:04 29.25262 91.83635 23320 ft 446 kts 88°
2026-04-23 00:04 29.25190 91.87196 23723 ft 448 kts 87°
2026-04-23 00:04 29.25132 91.90773 24070 ft 451 kts 87°
2026-04-23 00:04 29.25068 91.94373 24421 ft 453 kts 86°
2026-04-23 00:05 29.24991 91.97980 24780 ft 455 kts 87°
2026-04-23 00:05 29.24899 92.01622 25112 ft 457 kts 87°
2026-04-23 00:05 29.24802 92.05268 25444 ft 459 kts 87°
2026-04-23 00:05 29.24703 92.08918 25776 ft 461 kts 87°
2026-04-23 00:06 29.24601 92.12597 26113 ft 463 kts 87°
2026-04-23 00:06 29.24497 92.16297 26423 ft 465 kts 87°
2026-04-23 00:06 29.24393 92.20001 26710 ft 467 kts 87°
2026-04-23 00:06 29.24293 92.23717 27055 ft 468 kts 87°
2026-04-23 00:07 29.24194 92.27440 27388 ft 470 kts 87°
2026-04-23 00:07 29.24095 92.31197 27621 ft 471 kts 87°
2026-04-23 00:07 29.23994 92.34952 27898 ft 472 kts 87°
2026-04-23 00:07 29.23892 92.38712 28146 ft 473 kts 87°
2026-04-23 00:08 29.23791 92.42480 28364 ft 475 kts 87°
2026-04-23 00:08 29.23689 92.46268 28632 ft 477 kts 87°
2026-04-23 00:08 29.23585 92.50015 28882 ft 478 kts 87°
2026-04-23 00:08 29.23563 92.53815 29160 ft 476 kts 82°
2026-04-23 00:09 29.23992 92.57557 29336 ft 471 kts 72°
2026-04-23 00:09 29.24905 92.61130 29586 ft 465 kts 64°
2026-04-23 00:09 29.26254 92.64465 29884 ft 458 kts 56°
2026-04-23 00:09 29.27853 92.67670 30178 ft 457 kts 55°
2026-04-23 00:10 29.29424 92.70833 30380 ft 457 kts 55°
2026-04-23 00:10 29.30972 92.73959 30603 ft 457 kts 56°
2026-04-23 00:10 29.32536 92.77127 30850 ft 457 kts 56°
2026-04-23 00:10 29.34104 92.80303 31120 ft 457 kts 56°
2026-04-23 00:11 29.35669 92.83470 31366 ft 456 kts 56°
2026-04-23 00:11 29.37231 92.86629 31640 ft 456 kts 56°
2026-04-23 00:11 29.38796 92.89791 31911 ft 456 kts 56°
2026-04-23 00:11 29.40359 92.92948 32153 ft 455 kts 56°
2026-04-23 00:12 29.41917 92.96109 32404 ft 455 kts 56°
2026-04-23 00:12 29.43469 92.99271 32657 ft 454 kts 56°
2026-04-23 00:12 29.45019 93.02428 32930 ft 454 kts 56°
2026-04-23 00:12 29.46571 93.05586 33164 ft 454 kts 56°
2026-04-23 00:13 29.48124 93.08742 33370 ft 455 kts 56°
2026-04-23 00:13 29.49678 93.11904 33589 ft 455 kts 56°
2026-04-23 00:13 29.51230 93.15069 33875 ft 454 kts 56°
2026-04-23 00:13 29.52769 93.18220 34203 ft 451 kts 56°
2026-04-23 00:14 29.54301 93.21356 34409 ft 450 kts 56°
2026-04-23 00:14 29.55835 93.24496 34602 ft 451 kts 56°
2026-04-23 00:14 29.57372 93.27643 34748 ft 452 kts 56°
2026-04-23 00:14 29.58913 93.30796 34902 ft 453 kts 56°
2026-04-23 00:15 29.60455 93.33953 35068 ft 454 kts 56°
2026-04-23 00:15 29.61995 93.37114 35206 ft 455 kts 56°
2026-04-23 00:15 29.63549 93.40300 35261 ft 457 kts 56°
2026-04-23 00:16 29.66652 93.46679 35259 ft 457 kts 56°
2026-04-23 00:16 29.69758 93.53063 35257 ft 457 kts 56°
2026-04-23 00:17 29.72860 93.59456 35258 ft 458 kts 56°
2026-04-23 00:17 29.75954 93.65859 35258 ft 458 kts 57°
2026-04-23 00:18 29.79050 93.72268 35285 ft 458 kts 56°
2026-04-23 00:18 29.82142 93.78664 35280 ft 457 kts 56°
2026-04-23 00:19 29.85225 93.85052 35264 ft 457 kts 56°
2026-04-23 00:19 29.88309 93.91474 35252 ft 459 kts 58°
2026-04-23 00:20 29.90431 93.98404 35247 ft 467 kts 73°
2026-04-23 00:20 29.91870 94.05772 35247 ft 468 kts 73°
2026-04-23 00:21 29.93313 94.13039 35242 ft 468 kts 73°
2026-04-23 00:21 29.94770 94.20357 35260 ft 469 kts 73°
2026-04-23 00:22 29.96213 94.27696 35230 ft 470 kts 73°
2026-04-23 00:22 29.97653 94.35058 35224 ft 471 kts 73°
2026-04-23 00:23 29.99087 94.42434 35214 ft 472 kts 73°
2026-04-23 00:23 30.00517 94.49826 35215 ft 472 kts 74°
2026-04-23 00:24 30.01957 94.57215 35217 ft 473 kts 73°
2026-04-23 00:24 30.03395 94.64624 35231 ft 473 kts 73°
2026-04-23 00:25 30.04818 94.72026 35236 ft 472 kts 73°
2026-04-23 00:25 30.06249 94.79416 35232 ft 471 kts 73°
2026-04-23 00:26 30.07670 94.86802 35225 ft 471 kts 73°
2026-04-23 00:26 30.09075 94.94189 35225 ft 471 kts 73°
2026-04-23 00:27 30.10493 95.01578 35210 ft 472 kts 73°
2026-04-23 00:27 30.11966 95.08967 35207 ft 473 kts 73°
2026-04-23 00:28 30.13460 95.16357 35203 ft 473 kts 73°
2026-04-23 00:28 30.14937 95.23764 35212 ft 473 kts 73°
2026-04-23 00:29 30.16389 95.31190 35211 ft 473 kts 73°
2026-04-23 00:29 30.17837 95.38612 35246 ft 474 kts 73°
2026-04-23 00:30 30.19297 95.46053 35234 ft 475 kts 73°
2026-04-23 00:30 30.20759 95.53494 35245 ft 475 kts 73°
2026-04-23 00:31 30.22212 95.60956 35245 ft 476 kts 73°
2026-04-23 00:31 30.23659 95.68410 35246 ft 475 kts 73°
2026-04-23 00:32 30.25104 95.75876 35243 ft 476 kts 73°
2026-04-23 00:32 30.26553 95.83369 35243 ft 478 kts 73°
2026-04-23 00:33 30.27995 95.90873 35257 ft 477 kts 73°
2026-04-23 00:33 30.29424 95.98368 35261 ft 477 kts 73°
2026-04-23 00:34 30.30871 96.05856 35264 ft 476 kts 73°
2026-04-23 00:34 30.32363 96.13268 35255 ft 477 kts 73°
2026-04-23 00:35 30.33888 96.20741 35248 ft 478 kts 73°
2026-04-23 00:35 30.35392 96.28237 35249 ft 479 kts 73°
2026-04-23 00:36 30.36881 96.35751 35250 ft 479 kts 73°
2026-04-23 00:36 30.38366 96.43266 35257 ft 479 kts 73°
2026-04-23 00:37 30.39853 96.50790 35260 ft 479 kts 73°
2026-04-23 00:37 30.41336 96.58328 35258 ft 481 kts 73°
2026-04-23 00:38 30.42812 96.65882 35258 ft 481 kts 73°
2026-04-23 00:38 30.44290 96.73434 35258 ft 481 kts 73°
2026-04-23 00:39 30.45769 96.80996 35258 ft 481 kts 73°
2026-04-23 00:39 30.47234 96.88555 35237 ft 481 kts 74°
2026-04-23 00:40 30.48701 96.96133 35235 ft 482 kts 74°
2026-04-23 00:40 30.50162 97.03716 35239 ft 482 kts 74°
2026-04-23 00:41 30.51598 97.11308 35225 ft 483 kts 77°
2026-04-23 00:41 30.51778 97.19129 35224 ft 489 kts 93°
2026-04-23 00:42 30.51117 97.26989 35222 ft 490 kts 93°
2026-04-23 00:42 30.50468 97.34851 35211 ft 490 kts 93°
2026-04-23 00:43 30.49820 97.42707 35215 ft 490 kts 93°
2026-04-23 00:43 30.49158 97.50576 35208 ft 490 kts 93°
2026-04-23 00:44 30.48497 97.58420 35217 ft 490 kts 93°
2026-04-23 00:44 30.47829 97.66280 35205 ft 490 kts 94°
2026-04-23 00:45 30.47164 97.74090 35197 ft 490 kts 94°
2026-04-23 00:45 30.46484 97.81997 35193 ft 490 kts 94°
2026-04-23 00:46 30.45800 97.89853 35190 ft 490 kts 94°
2026-04-23 00:46 30.45109 97.97712 35213 ft 490 kts 94°
2026-04-23 00:47 30.44415 98.05580 35196 ft 491 kts 94°
2026-04-23 00:47 30.43725 98.13399 35190 ft 491 kts 94°
2026-04-23 00:48 30.43023 98.21284 35186 ft 492 kts 94°
2026-04-23 00:48 30.42393 98.29178 35188 ft 492 kts 93°
2026-04-23 00:49 30.41902 98.35800 35192 ft 493 kts 94°
2026-04-23 00:49 30.41308 98.43665 35184 ft 494 kts 94°
2026-04-23 00:50 30.40684 98.51647 35185 ft 495 kts 94°
2026-04-23 00:50 30.40054 98.59542 35185 ft 496 kts 94°
2026-04-23 00:51 30.39416 98.67490 35188 ft 496 kts 94°
2026-04-23 00:51 30.38764 98.75439 35172 ft 497 kts 95°
2026-04-23 00:52 30.38110 98.83423 35180 ft 499 kts 95°
2026-04-23 00:52 30.37451 98.91428 35170 ft 499 kts 95°
2026-04-23 00:53 30.36794 98.99434 35181 ft 501 kts 95°
2026-04-23 00:53 30.36124 99.07483 35186 ft 502 kts 95°
2026-04-23 00:54 30.35448 99.15538 35188 ft 503 kts 95°
2026-04-23 00:54 30.34766 99.23614 35191 ft 504 kts 95°
2026-04-23 00:55 30.34080 99.31686 35208 ft 505 kts 95°
2026-04-23 00:55 30.33392 99.39781 35209 ft 505 kts 95°
2026-04-23 00:56 30.32691 99.47877 35215 ft 506 kts 96°
2026-04-23 00:56 30.31984 99.55977 35204 ft 506 kts 96°
2026-04-23 00:57 30.31271 99.64092 35203 ft 507 kts 96°
2026-04-23 00:57 30.30553 99.72205 35189 ft 507 kts 96°
2026-04-23 00:58 30.29829 99.80323 35196 ft 507 kts 96°
2026-04-23 00:58 30.29100 99.88437 35177 ft 508 kts 96°
2026-04-23 00:59 30.28370 99.96575 35164 ft 509 kts 96°
2026-04-23 00:59 30.27658 100.04671 35156 ft 510 kts 95°
2026-04-23 01:00 30.27061 100.12849 35161 ft 510 kts 94°
2026-04-23 01:00 30.26495 100.21035 35159 ft 511 kts 95°
2026-04-23 01:01 30.25893 100.29235 35151 ft 512 kts 95°
2026-04-23 01:01 30.25264 100.37432 35149 ft 512 kts 95°
2026-04-23 01:02 30.24625 100.45645 35142 ft 512 kts 95°
2026-04-23 01:02 30.23990 100.53855 35144 ft 513 kts 95°
2026-04-23 01:03 30.23350 100.62079 35139 ft 514 kts 96°
2026-04-23 01:03 30.22703 100.70310 35134 ft 515 kts 96°
2026-04-23 01:04 30.22049 100.78566 35130 ft 516 kts 96°
2026-04-23 01:04 30.21048 100.90956 35135 ft 516 kts 96°
2026-04-23 01:05 30.20381 100.99217 35142 ft 516 kts 96°
2026-04-23 01:05 30.19705 101.07479 35149 ft 516 kts 96°
2026-04-23 01:06 30.19025 101.15736 35142 ft 516 kts 96°
2026-04-23 01:06 30.18344 101.23996 35138 ft 516 kts 96°
2026-04-23 01:07 30.17656 101.32254 35141 ft 516 kts 96°
2026-04-23 01:07 30.16952 101.40519 35137 ft 518 kts 96°
2026-04-23 01:08 30.16246 101.48800 35130 ft 518 kts 96°
2026-04-23 01:08 30.15538 101.57085 35135 ft 519 kts 96°
2026-04-23 01:09 30.14839 101.65391 35139 ft 519 kts 96°
2026-04-23 01:09 30.15095 101.73698 35128 ft 519 kts 77°
2026-04-23 01:10 30.17280 101.81556 35162 ft 512 kts 63°
2026-04-23 01:10 30.20091 101.89124 35154 ft 512 kts 63°
2026-04-23 01:11 30.22868 101.96708 35164 ft 513 kts 64°
2026-04-23 01:11 30.25647 102.04289 35168 ft 512 kts 64°
2026-04-23 01:12 30.28413 102.11836 35150 ft 513 kts 64°
2026-04-23 01:12 30.31196 102.19442 35161 ft 514 kts 63°
2026-04-23 01:13 30.33994 102.27111 35158 ft 514 kts 63°
2026-04-23 01:13 30.36754 102.34681 35157 ft 514 kts 64°
2026-04-23 01:14 30.39528 102.42302 35208 ft 514 kts 64°
2026-04-23 01:14 30.42296 102.49925 35170 ft 513 kts 64°
2026-04-23 01:15 30.45052 102.57559 35174 ft 514 kts 64°
2026-04-23 01:15 30.47804 102.65197 35157 ft 513 kts 64°
2026-04-23 01:16 30.50550 102.72823 35153 ft 513 kts 64°
2026-04-23 01:16 30.53301 102.80473 35115 ft 514 kts 64°
2026-04-23 01:17 30.56042 102.88139 35117 ft 514 kts 63°
2026-04-23 01:17 30.58790 102.95829 35113 ft 517 kts 64°
2026-04-23 01:18 30.61542 103.03559 35115 ft 518 kts 64°
2026-04-23 01:18 30.64225 103.11301 35095 ft 517 kts 65°
2026-04-23 01:19 30.66824 103.19104 35105 ft 521 kts 70°
2026-04-23 01:19 30.68071 103.27407 35088 ft 524 kts 89°
2026-04-23 01:20 30.67550 103.35833 35074 ft 524 kts 97°
2026-04-23 01:20 30.66775 103.44264 35082 ft 525 kts 97°
2026-04-23 01:21 30.66003 103.52701 35064 ft 526 kts 98°
2026-04-23 01:21 30.65224 103.61119 35075 ft 529 kts 98°
2026-04-23 01:22 30.64186 103.69562 35081 ft 527 kts 107°
2026-04-23 01:22 30.61985 103.77653 35100 ft 526 kts 111°
2026-04-23 01:23 30.59728 103.85728 35106 ft 526 kts 111°
2026-04-23 01:23 30.57478 103.93826 35104 ft 528 kts 112°
2026-04-23 01:24 30.55363 104.01999 35109 ft 530 kts 109°
2026-04-23 01:24 30.53368 104.10228 35082 ft 528 kts 115°
2026-04-23 01:25 30.49925 104.17568 35088 ft 510 kts 136°
2026-04-23 01:25 30.44912 104.23107 35102 ft 489 kts 155°
2026-04-23 01:26 30.42047 104.25149 35101 ft 478 kts 163°
2026-04-23 01:26 30.39080 104.26832 35102 ft 475 kts 164°
2026-04-23 01:26 30.33131 104.30187 35105 ft 476 kts 164°
2026-04-23 01:27 30.27177 104.33549 35111 ft 476 kts 164°
2026-04-23 01:27 30.21218 104.36911 35094 ft 477 kts 164°
2026-04-23 01:28 30.15253 104.40268 35064 ft 476 kts 164°
2026-04-23 01:28 30.09280 104.43619 35095 ft 477 kts 164°
2026-04-23 01:29 30.03309 104.46959 35102 ft 477 kts 164°
2026-04-23 01:29 29.97339 104.50295 35108 ft 477 kts 164°
2026-04-23 01:30 29.91413 104.53601 35110 ft 476 kts 164°
2026-04-23 01:30 29.85441 104.56928 35076 ft 476 kts 164°
2026-04-23 01:31 29.79481 104.60254 35091 ft 476 kts 164°
2026-04-23 01:31 29.73515 104.63571 35100 ft 476 kts 164°
2026-04-23 01:32 29.67550 104.66883 35107 ft 476 kts 164°
2026-04-23 01:32 29.61581 104.70194 35106 ft 476 kts 164°
2026-04-23 01:33 29.55610 104.73499 35081 ft 476 kts 164°
2026-04-23 01:33 29.49636 104.76792 35096 ft 476 kts 164°
2026-04-23 01:34 29.43668 104.80091 35104 ft 476 kts 164°
2026-04-23 01:34 29.37703 104.83390 35114 ft 476 kts 164°
2026-04-23 01:35 29.32742 104.86127 35116 ft 476 kts 164°
2026-04-23 01:35 29.26730 104.89246 35074 ft 473 kts 166°
2026-04-23 01:36 29.20684 104.92212 35096 ft 473 kts 167°
2026-04-23 01:36 29.14643 104.95193 35103 ft 474 kts 166°
2026-04-23 01:37 29.08611 104.98236 35106 ft 474 kts 166°
2026-04-23 01:37 29.02575 105.01317 35111 ft 475 kts 166°
2026-04-23 01:38 28.96543 105.04376 35075 ft 475 kts 167°
2026-04-23 01:38 28.90492 105.07407 35091 ft 475 kts 167°
2026-04-23 01:39 28.84432 105.10430 35105 ft 476 kts 167°
2026-04-23 01:39 28.78365 105.13460 35106 ft 476 kts 166°
2026-04-23 01:40 28.72364 105.16788 35116 ft 483 kts 162°
2026-04-23 01:40 28.66464 105.20479 35080 ft 485 kts 161°
2026-04-23 01:41 28.60560 105.24204 35102 ft 485 kts 162°
2026-04-23 01:41 28.54626 105.27817 35110 ft 484 kts 162°
2026-04-23 01:42 28.48669 105.31372 35117 ft 483 kts 163°
2026-04-23 01:42 28.42753 105.34906 35122 ft 484 kts 163°
2026-04-23 01:43 28.36802 105.38490 35129 ft 484 kts 162°
2026-04-23 01:43 28.30854 105.42080 35121 ft 484 kts 163°
2026-04-23 01:44 28.24906 105.45662 35133 ft 484 kts 163°
2026-04-23 01:44 28.18951 105.49235 35138 ft 484 kts 163°
2026-04-23 01:45 28.12999 105.52782 35140 ft 483 kts 163°
2026-04-23 01:45 28.07025 105.56241 35150 ft 475 kts 169°
2026-04-23 01:46 28.03945 105.57443 35116 ft 461 kts 178°
2026-04-23 01:46 28.00852 105.58130 35128 ft 448 kts 185°
2026-04-23 01:46 27.94669 105.59080 35130 ft 448 kts 185°
2026-04-23 01:47 27.88495 105.60049 35138 ft 448 kts 185°
2026-04-23 01:47 27.82298 105.61061 35145 ft 455 kts 181°
2026-04-23 01:48 27.79206 105.62039 35150 ft 470 kts 171°
2026-04-23 01:48 27.76193 105.63622 35101 ft 485 kts 163°
2026-04-23 01:48 27.70245 105.67278 35169 ft 487 kts 164°
2026-04-23 01:49 27.64266 105.70825 35180 ft 482 kts 166°
2026-04-23 01:49 27.58231 105.74053 35185 ft 479 kts 168°
2026-04-23 01:50 27.52191 105.77199 35180 ft 479 kts 168°
2026-04-23 01:50 27.46165 105.80406 35187 ft 480 kts 167°
2026-04-23 01:51 27.40141 105.83668 35179 ft 480 kts 167°
2026-04-23 01:51 27.34128 105.86927 35175 ft 479 kts 167°
2026-04-23 01:52 27.28110 105.90167 35175 ft 479 kts 167°
2026-04-23 01:52 27.22090 105.93394 35175 ft 479 kts 167°
2026-04-23 01:53 27.16070 105.96620 35174 ft 479 kts 167°
2026-04-23 01:53 27.10096 105.99828 35142 ft 479 kts 167°
2026-04-23 01:54 27.04306 106.03801 35154 ft 505 kts 151°
2026-04-23 01:54 27.01768 106.06602 35158 ft 521 kts 140°
2026-04-23 01:54 26.99507 106.09890 35164 ft 527 kts 136°
2026-04-23 01:55 26.95145 106.16416 35166 ft 527 kts 137°
2026-04-23 01:55 26.90731 106.22970 35166 ft 527 kts 137°
2026-04-23 01:56 26.86312 106.29511 35177 ft 527 kts 137°
2026-04-23 01:56 26.81887 106.36049 35158 ft 527 kts 137°
2026-04-23 01:57 26.77460 106.42585 35184 ft 528 kts 137°
2026-04-23 01:57 26.73010 106.49140 35195 ft 529 kts 137°
2026-04-23 01:58 26.68564 106.55685 35202 ft 528 kts 137°
2026-04-23 01:58 26.64123 106.62223 35205 ft 528 kts 137°
2026-04-23 01:59 26.59676 106.68761 35213 ft 528 kts 137°
2026-04-23 01:59 26.55227 106.75275 35209 ft 527 kts 137°
2026-04-23 02:00 26.50562 106.81479 35208 ft 513 kts 147°
2026-04-23 02:00 26.45479 106.87050 35144 ft 513 kts 146°
2026-04-23 02:01 26.40370 106.92644 35187 ft 516 kts 146°
2026-04-23 02:01 26.35250 106.98258 35194 ft 516 kts 146°
2026-04-23 02:02 26.30129 107.03877 35186 ft 516 kts 146°
2026-04-23 02:02 26.25014 107.09492 35183 ft 516 kts 146°
2026-04-23 02:03 26.19909 107.15115 35182 ft 516 kts 146°
2026-04-23 02:03 26.14832 107.20692 35174 ft 516 kts 146°
2026-04-23 02:04 26.09718 107.26292 35127 ft 516 kts 146°
2026-04-23 02:04 26.04592 107.31892 35128 ft 518 kts 146°
2026-04-23 02:05 25.99447 107.37504 35134 ft 519 kts 146°
2026-04-23 02:05 25.94289 107.43134 35124 ft 520 kts 146°
2026-04-23 02:06 25.89121 107.48761 35124 ft 520 kts 146°
2026-04-23 02:06 25.83947 107.54391 35138 ft 521 kts 146°
2026-04-23 02:07 25.78775 107.60019 35140 ft 521 kts 146°
2026-04-23 02:07 25.73592 107.65644 35118 ft 521 kts 145°
2026-04-23 02:08 25.68419 107.71269 35136 ft 522 kts 145°
2026-04-23 02:08 25.63253 107.76925 35144 ft 522 kts 145°
2026-04-23 02:09 25.58102 107.82575 35153 ft 521 kts 145°
2026-04-23 02:09 25.52945 107.88215 35150 ft 521 kts 145°
2026-04-23 02:10 25.47504 107.93313 35137 ft 500 kts 159°
2026-04-23 02:10 25.44487 107.95121 35138 ft 486 kts 168°
2026-04-23 02:10 25.41410 107.96397 35104 ft 472 kts 175°
2026-04-23 02:11 25.38261 107.97200 35111 ft 459 kts 183°
2026-04-23 02:11 25.35112 107.97617 35122 ft 454 kts 185°
2026-04-23 02:11 25.28829 107.98374 35122 ft 454 kts 185°
2026-04-23 02:12 25.22543 107.99136 35119 ft 454 kts 185°
2026-04-23 02:12 25.16254 107.99904 35117 ft 455 kts 185°
2026-04-23 02:13 25.09970 108.00678 35096 ft 454 kts 185°
2026-04-23 02:13 25.03696 108.01445 35110 ft 453 kts 185°
2026-04-23 02:14 24.97422 108.02197 35116 ft 453 kts 185°
2026-04-23 02:14 24.91159 108.02949 35114 ft 453 kts 185°
2026-04-23 02:15 24.81771 108.04093 35077 ft 452 kts 184°
2026-04-23 02:16 24.75523 108.04853 35094 ft 451 kts 184°
2026-04-23 02:16 24.69288 108.05613 35102 ft 451 kts 184°
2026-04-23 02:17 24.63060 108.06362 35106 ft 450 kts 184°
2026-04-23 02:17 24.56830 108.07115 35109 ft 450 kts 184°
2026-04-23 02:18 24.50598 108.07863 35077 ft 450 kts 184°
2026-04-23 02:18 24.44372 108.08615 35089 ft 450 kts 183°
2026-04-23 02:19 24.38149 108.09383 35102 ft 451 kts 184°
2026-04-23 02:19 24.31916 108.10151 35106 ft 451 kts 184°
2026-04-23 02:20 24.25685 108.10907 35104 ft 450 kts 184°
2026-04-23 02:20 24.19449 108.11660 35108 ft 451 kts 184°
2026-04-23 02:21 24.13220 108.12409 35104 ft 450 kts 184°
2026-04-23 02:21 24.06992 108.13158 35103 ft 450 kts 184°
2026-04-23 02:22 24.01807 108.13788 35105 ft 451 kts 184°
2026-04-23 02:22 23.94566 108.14664 35100 ft 450 kts 184°
2026-04-23 02:23 23.88370 108.16083 35069 ft 474 kts 164°
2026-04-23 02:23 23.86408 108.17309 35075 ft 488 kts 152°
2026-04-23 02:23 23.83913 108.19914 35076 ft 508 kts 134°
2026-04-23 02:23 23.82187 108.23339 35072 ft 524 kts 113°
2026-04-23 02:24 23.81457 108.27259 35070 ft 531 kts 97°
2026-04-23 02:24 23.80994 108.35329 35064 ft 534 kts 95°
2026-04-23 02:25 23.80559 108.43439 35073 ft 536 kts 96°
2026-04-23 02:25 23.80103 108.51567 35074 ft 537 kts 96°
2026-04-23 02:26 23.79633 108.59705 35079 ft 537 kts 96°
2026-04-23 02:26 23.79156 108.67841 35095 ft 537 kts 96°
2026-04-23 02:27 23.78678 108.75925 35084 ft 537 kts 96°
2026-04-23 02:27 23.78199 108.84063 35091 ft 537 kts 96°
2026-04-23 02:28 23.77718 108.92202 35093 ft 537 kts 96°
2026-04-23 02:28 23.77224 109.00343 35093 ft 537 kts 96°
2026-04-23 02:29 23.76722 109.08477 35084 ft 537 kts 96°
2026-04-23 02:29 23.75949 109.16553 35076 ft 532 kts 106°
2026-04-23 02:30 23.74340 109.24433 35076 ft 532 kts 107°
2026-04-23 02:30 23.72768 109.32322 35088 ft 532 kts 106°
2026-04-23 02:31 23.71181 109.40205 35092 ft 532 kts 107°
2026-04-23 02:31 23.69572 109.48095 35094 ft 532 kts 107°
2026-04-23 02:32 23.67955 109.55974 35076 ft 532 kts 107°
2026-04-23 02:32 23.66341 109.63840 35077 ft 532 kts 107°
2026-04-23 02:33 23.64728 109.71710 35082 ft 531 kts 107°
2026-04-23 02:33 23.63106 109.79574 35088 ft 531 kts 107°
2026-04-23 02:34 23.61487 109.87425 35073 ft 531 kts 106°
2026-04-23 02:34 23.59867 109.95271 35084 ft 530 kts 106°
2026-04-23 02:35 23.58242 110.03111 35078 ft 530 kts 107°
2026-04-23 02:35 23.56612 110.10950 35073 ft 531 kts 107°
2026-04-23 02:36 23.54975 110.18792 35078 ft 531 kts 106°
2026-04-23 02:36 23.53334 110.26627 35081 ft 530 kts 106°
2026-04-23 02:37 23.51706 110.34400 35088 ft 530 kts 107°
2026-04-23 02:37 23.50074 110.42225 35082 ft 530 kts 106°
2026-04-23 02:38 23.48485 110.50063 35080 ft 529 kts 105°
2026-04-23 02:38 23.46909 110.57890 35090 ft 529 kts 105°
2026-04-23 02:39 23.45318 110.65698 35086 ft 528 kts 106°
2026-04-23 02:39 23.43710 110.73487 35083 ft 527 kts 106°
2026-04-23 02:40 23.42076 110.81262 35066 ft 526 kts 106°
2026-04-23 02:40 23.40430 110.89023 35078 ft 525 kts 106°
2026-04-23 02:41 23.38786 110.96754 35081 ft 524 kts 106°
2026-04-23 02:41 23.37138 111.04481 35078 ft 524 kts 106°
2026-04-23 02:42 23.35499 111.12204 35076 ft 524 kts 106°
2026-04-23 02:42 23.33881 111.19929 35078 ft 523 kts 105°
2026-04-23 02:43 23.32316 111.27650 35076 ft 522 kts 105°
2026-04-23 02:43 23.30759 111.35364 35072 ft 521 kts 105°
2026-04-23 02:44 23.29183 111.43050 35067 ft 520 kts 105°
2026-04-23 02:44 23.27591 111.50730 35061 ft 520 kts 105°
2026-04-23 02:45 23.25997 111.58390 35050 ft 520 kts 105°
2026-04-23 02:45 23.24374 111.66057 35051 ft 520 kts 106°
2026-04-23 02:46 23.22741 111.73717 35051 ft 520 kts 106°
2026-04-23 02:46 23.21115 111.81370 35051 ft 520 kts 105°
2026-04-23 02:47 23.19506 111.89018 35057 ft 518 kts 105°
2026-04-23 02:47 23.17927 111.96654 35059 ft 518 kts 105°
2026-04-23 02:48 23.16348 112.04288 35051 ft 517 kts 105°
2026-04-23 02:48 23.14765 112.11865 35048 ft 517 kts 105°
2026-04-23 02:49 23.13165 112.19466 35047 ft 516 kts 105°
2026-04-23 02:49 23.11566 112.27060 35031 ft 515 kts 105°
2026-04-23 02:50 23.09974 112.34643 35026 ft 515 kts 105°
2026-04-23 02:50 23.08371 112.42216 35023 ft 514 kts 105°
2026-04-23 02:51 23.06021 112.49463 35011 ft 505 kts 125°
2026-04-23 02:51 23.01738 112.55378 35014 ft 497 kts 135°
2026-04-23 02:52 22.97233 112.61083 34991 ft 498 kts 135°
2026-04-23 02:52 22.95176 112.64121 34985 ft 505 kts 122°
2026-04-23 02:52 22.93860 112.67656 34980 ft 510 kts 105°
2026-04-23 02:52 22.93418 112.71475 34985 ft 512 kts 91°
2026-04-23 02:53 22.93386 112.75341 34981 ft 513 kts 91°
2026-04-23 02:53 22.93345 112.83085 34981 ft 514 kts 90°
2026-04-23 02:54 22.93292 112.90837 34986 ft 514 kts 91°
2026-04-23 02:54 22.93220 112.98500 34990 ft 504 kts 91°
2026-04-23 02:54 22.93183 113.02252 34991 ft 487 kts 91°
2026-04-23 02:55 22.93153 113.05868 34995 ft 472 kts 90°
2026-04-23 02:55 22.93142 113.09366 34996 ft 457 kts 90°
2026-04-23 02:55 22.93137 113.12779 35007 ft 451 kts 90°
2026-04-23 02:56 22.93156 113.19568 34990 ft 450 kts 90°
2026-04-23 02:56 22.93181 113.26356 34984 ft 450 kts 90°
2026-04-23 02:57 22.93207 113.33139 34984 ft 450 kts 90°
2026-04-23 02:57 22.93235 113.39931 34979 ft 450 kts 90°
2026-04-23 02:58 22.93267 113.46712 34979 ft 449 kts 90°
2026-04-23 02:58 22.93307 113.53490 34976 ft 449 kts 90°
2026-04-23 02:59 22.93348 113.60257 34976 ft 449 kts 90°
2026-04-23 02:59 22.93390 113.67033 34968 ft 449 kts 90°
2026-04-23 03:00 22.93432 113.73811 34967 ft 449 kts 90°
2026-04-23 03:00 22.93481 113.80590 34965 ft 449 kts 90°
2026-04-23 03:01 22.93539 113.87362 34967 ft 449 kts 90°
2026-04-23 03:01 22.93596 113.94141 34963 ft 449 kts 90°
2026-04-23 03:02 22.93652 114.00919 34959 ft 449 kts 90°
2026-04-23 03:02 22.93713 114.07689 34946 ft 449 kts 90°
2026-04-23 03:03 22.93789 114.14449 34959 ft 448 kts 90°
2026-04-23 03:03 22.93871 114.21209 34966 ft 448 kts 90°
2026-04-23 03:04 22.93956 114.27973 34964 ft 448 kts 90°
2026-04-23 03:04 22.94042 114.34732 34965 ft 448 kts 90°
2026-04-23 03:05 22.94130 114.41491 34965 ft 448 kts 90°
2026-04-23 03:05 22.94231 114.48229 34965 ft 447 kts 90°
2026-04-23 03:06 22.94335 114.54971 34966 ft 447 kts 90°
2026-04-23 03:06 22.94436 114.61709 34966 ft 447 kts 90°
2026-04-23 03:07 22.94541 114.68403 34963 ft 447 kts 90°
2026-04-23 03:07 22.94647 114.75147 34963 ft 447 kts 90°
2026-04-23 03:08 22.94752 114.81876 34962 ft 445 kts 90°
2026-04-23 03:08 22.94870 114.88585 34979 ft 445 kts 90°
2026-04-23 03:09 22.95001 114.95315 34974 ft 447 kts 90°
2026-04-23 03:09 22.95143 115.02054 34958 ft 447 kts 90°
2026-04-23 03:10 22.95268 115.08781 34968 ft 446 kts 90°
2026-04-23 03:10 22.95365 115.14374 34968 ft 446 kts 90°
2026-04-23 03:11 22.95474 115.21109 34965 ft 446 kts 90°
2026-04-23 03:11 22.95589 115.27839 34970 ft 446 kts 90°
2026-04-23 03:12 22.95708 115.34576 34970 ft 446 kts 90°
2026-04-23 03:12 22.95811 115.41309 34967 ft 446 kts 90°
2026-04-23 03:13 22.95914 115.48037 34968 ft 446 kts 90°
2026-04-23 03:13 22.96018 115.54766 34973 ft 446 kts 90°
2026-04-23 03:14 22.96122 115.61501 34970 ft 446 kts 90°
2026-04-23 03:14 22.96231 115.68237 34971 ft 447 kts 90°
2026-04-23 03:15 22.96340 115.74984 34971 ft 447 kts 90°
2026-04-23 03:15 22.96451 115.81739 34972 ft 448 kts 90°
2026-04-23 03:16 22.96562 115.88443 34971 ft 448 kts 90°
2026-04-23 03:16 22.96727 115.98574 34971 ft 448 kts 90°
2026-04-23 03:17 22.96824 116.05331 34971 ft 448 kts 90°
2026-04-23 03:17 22.96922 116.12081 34970 ft 448 kts 90°
2026-04-23 03:18 22.97024 116.18835 34971 ft 448 kts 90°
2026-04-23 03:18 22.97127 116.25595 34971 ft 448 kts 90°
2026-04-23 03:19 22.97217 116.32349 34971 ft 448 kts 90°
2026-04-23 03:19 22.97293 116.39104 34971 ft 448 kts 93°
2026-04-23 03:20 22.96830 116.42413 34972 ft 441 kts 112°
2026-04-23 03:20 22.95516 116.45364 34971 ft 431 kts 131°
2026-04-23 03:20 22.93498 116.47684 34971 ft 417 kts 151°
2026-04-23 03:20 22.91008 116.49153 34972 ft 400 kts 171°
2026-04-23 03:21 22.88339 116.49647 34976 ft 382 kts 190°
2026-04-23 03:21 22.85797 116.49158 34977 ft 364 kts 210°
2026-04-23 03:21 22.83676 116.47789 34975 ft 350 kts 229°
2026-04-23 03:21 22.82224 116.45741 34976 ft 340 kts 248°
2026-04-23 03:22 22.81612 116.43296 34978 ft 337 kts 268°
2026-04-23 03:22 22.81912 116.40780 34975 ft 342 kts 287°
2026-04-23 03:22 22.83073 116.38543 34979 ft 351 kts 304°
2026-04-23 03:22 22.84713 116.36509 34973 ft 355 kts 307°
2026-04-23 03:23 22.87548 116.32251 34971 ft 343 kts 284°
2026-04-23 03:23 22.88616 116.27266 34971 ft 342 kts 277°
2026-04-23 03:24 22.89386 116.22150 34971 ft 341 kts 277°
2026-04-23 03:24 22.90146 116.17112 34971 ft 340 kts 277°
2026-04-23 03:25 22.90912 116.12045 34971 ft 340 kts 277°
2026-04-23 03:25 22.91680 116.06980 34971 ft 340 kts 277°
2026-04-23 03:26 22.92448 116.01907 34969 ft 341 kts 277°
2026-04-23 03:26 22.93215 115.96839 34968 ft 341 kts 277°
2026-04-23 03:27 22.93992 115.91769 34968 ft 341 kts 277°
2026-04-23 03:27 22.94781 115.86695 34968 ft 341 kts 277°
2026-04-23 03:28 22.95566 115.81650 34968 ft 341 kts 277°
2026-04-23 03:28 22.96360 115.76557 34778 ft 339 kts 277°
2026-04-23 03:29 22.96754 115.74043 34350 ft 338 kts 277°
2026-04-23 03:29 22.97155 115.71476 33381 ft 352 kts 277°
2026-04-23 03:29 22.97567 115.68810 32332 ft 365 kts 277°
2026-04-23 03:29 22.97992 115.66038 31398 ft 380 kts 277°
2026-04-23 03:30 22.98433 115.63112 30947 ft 403 kts 277°
2026-04-23 03:30 22.98893 115.60054 30598 ft 418 kts 277°
2026-04-23 03:30 22.99363 115.56914 30250 ft 422 kts 277°
2026-04-23 03:30 22.99832 115.53777 29923 ft 421 kts 277°
2026-04-23 03:31 23.00301 115.50650 29511 ft 419 kts 277°
2026-04-23 03:31 23.00767 115.47531 29109 ft 417 kts 277°
2026-04-23 03:31 23.01230 115.44436 28720 ft 415 kts 277°
2026-04-23 03:31 23.01690 115.41356 28343 ft 412 kts 277°
2026-04-23 03:32 23.02146 115.38298 27983 ft 409 kts 277°
2026-04-23 03:32 23.02601 115.35259 27641 ft 406 kts 277°
2026-04-23 03:32 23.03052 115.32244 27300 ft 404 kts 277°
2026-04-23 03:32 23.03506 115.29243 26953 ft 402 kts 277°
2026-04-23 03:33 23.03960 115.26256 26618 ft 399 kts 277°
2026-04-23 03:33 23.04411 115.23303 26275 ft 397 kts 277°
2026-04-23 03:33 23.04862 115.20345 25943 ft 395 kts 277°
2026-04-23 03:33 23.05310 115.17409 25617 ft 393 kts 277°
2026-04-23 03:34 23.05751 115.14524 25298 ft 391 kts 277°
2026-04-23 03:34 23.06200 115.11583 24971 ft 389 kts 277°
2026-04-23 03:34 23.06634 115.08730 24662 ft 387 kts 277°
2026-04-23 03:34 23.07075 115.05817 24351 ft 385 kts 277°
2026-04-23 03:35 23.07511 115.02955 24036 ft 383 kts 277°
2026-04-23 03:35 23.07948 115.00118 23741 ft 380 kts 277°
2026-04-23 03:35 23.08393 114.97295 23439 ft 378 kts 277°
2026-04-23 03:35 23.08838 114.94485 23078 ft 376 kts 277°
2026-04-23 03:36 23.09274 114.91715 22709 ft 374 kts 277°
2026-04-23 03:36 23.09702 114.88967 22358 ft 373 kts 277°
2026-04-23 03:36 23.10131 114.86196 22006 ft 372 kts 277°
2026-04-23 03:36 23.10556 114.83431 21662 ft 370 kts 277°
2026-04-23 03:37 23.10977 114.80689 21309 ft 367 kts 277°
2026-04-23 03:37 23.11399 114.77958 20971 ft 366 kts 277°
2026-04-23 03:37 23.11815 114.75236 20635 ft 365 kts 277°
2026-04-23 03:37 23.12225 114.72527 20301 ft 363 kts 277°
2026-04-23 03:38 23.12629 114.69824 19974 ft 362 kts 277°
2026-04-23 03:38 23.13029 114.67129 19649 ft 361 kts 277°
2026-04-23 03:38 23.13425 114.64443 19325 ft 359 kts 277°
2026-04-23 03:38 23.13816 114.61766 19014 ft 358 kts 277°
2026-04-23 03:39 23.14202 114.59100 18698 ft 357 kts 277°
2026-04-23 03:39 23.14584 114.56434 18388 ft 356 kts 277°
2026-04-23 03:39 23.14960 114.53781 18066 ft 355 kts 277°
2026-04-23 03:39 23.15335 114.51136 17709 ft 353 kts 277°
2026-04-23 03:40 23.15712 114.48506 17352 ft 352 kts 277°
2026-04-23 03:40 23.16092 114.45887 16999 ft 350 kts 277°
2026-04-23 03:40 23.16474 114.43283 16650 ft 348 kts 277°
2026-04-23 03:40 23.16860 114.40690 16309 ft 347 kts 277°
2026-04-23 03:41 23.17250 114.38106 15975 ft 346 kts 277°
2026-04-23 03:41 23.17641 114.35535 15638 ft 344 kts 277°
2026-04-23 03:41 23.18032 114.32974 15302 ft 343 kts 277°
2026-04-23 03:41 23.18426 114.30425 14974 ft 341 kts 277°
2026-04-23 03:42 23.18823 114.27889 14647 ft 340 kts 277°
2026-04-23 03:42 23.19223 114.25360 14327 ft 339 kts 277°
2026-04-23 03:42 23.19429 114.22829 14003 ft 334 kts 263°
2026-04-23 03:42 23.19015 114.20353 13690 ft 332 kts 256°
2026-04-23 03:43 23.18512 114.17911 13334 ft 329 kts 256°
2026-04-23 03:43 23.18006 114.15491 12981 ft 328 kts 256°
2026-04-23 03:43 23.17498 114.13076 12633 ft 328 kts 256°
2026-04-23 03:43 23.16991 114.10668 12284 ft 326 kts 256°
2026-04-23 03:44 23.16488 114.08279 11944 ft 324 kts 256°
2026-04-23 03:44 23.15985 114.05899 11607 ft 324 kts 256°
2026-04-23 03:44 23.15487 114.03513 11276 ft 325 kts 256°
2026-04-23 03:44 23.14964 114.01105 10933 ft 327 kts 256°
2026-04-23 03:45 23.14446 113.98723 10539 ft 322 kts 256°
2026-04-23 03:45 23.13939 113.96366 10099 ft 319 kts 256°
2026-04-23 03:45 23.13435 113.94024 9652 ft 317 kts 256°
2026-04-23 03:45 23.12936 113.91701 9171 ft 315 kts 256°
2026-04-23 03:46 23.12461 113.89446 8708 ft 314 kts 256°
2026-04-23 03:46 23.11964 113.87079 8232 ft 313 kts 256°
2026-04-23 03:46 23.11485 113.84793 7880 ft 306 kts 256°
2026-04-23 03:46 23.11005 113.82530 7249 ft 308 kts 256°
2026-04-23 03:47 23.10527 113.80266 6705 ft 308 kts 256°
2026-04-23 03:47 23.10054 113.78003 6177 ft 307 kts 256°
2026-04-23 03:47 23.09582 113.75720 6145 ft 314 kts 256°
2026-04-23 03:47 23.09104 113.73407 7090 ft 314 kts 256°
2026-04-23 03:48 23.08632 113.71146 7567 ft 293 kts 256°
2026-04-23 03:48 23.08198 113.69079 7777 ft 273 kts 256°
2026-04-23 03:48 23.07773 113.67086 7861 ft 269 kts 256°
2026-04-23 03:48 23.07348 113.65106 7875 ft 268 kts 256°
2026-04-23 03:49 23.06930 113.63132 7879 ft 268 kts 256°
2026-04-23 03:49 23.06512 113.61163 7868 ft 267 kts 256°
2026-04-23 03:49 23.06098 113.59210 7573 ft 265 kts 256°
2026-04-23 03:49 23.05691 113.57260 7202 ft 265 kts 257°
2026-04-23 03:50 23.05671 113.55262 6928 ft 268 kts 280°
2026-04-23 03:50 23.06196 113.53324 6679 ft 265 kts 285°
2026-04-23 03:50 23.06788 113.51474 6536 ft 254 kts 286°
2026-04-23 03:50 23.07370 113.49689 6256 ft 249 kts 287°
2026-04-23 03:51 23.07933 113.47948 5958 ft 245 kts 286°
2026-04-23 03:51 23.08503 113.46218 5896 ft 237 kts 286°
2026-04-23 03:51 23.09061 113.44540 5903 ft 236 kts 286°
2026-04-23 03:51 23.09617 113.42872 5640 ft 235 kts 287°
2026-04-23 03:52 23.10161 113.41227 5461 ft 225 kts 286°
2026-04-23 03:52 23.10676 113.39671 5241 ft 216 kts 286°
2026-04-23 03:52 23.11180 113.38150 5015 ft 212 kts 286°
2026-04-23 03:52 23.11667 113.36700 4882 ft 204 kts 286°
2026-04-23 03:53 23.12155 113.35279 4726 ft 198 kts 286°
2026-04-23 03:53 23.12640 113.33891 4489 ft 196 kts 286°
2026-04-23 03:53 23.13125 113.32508 4209 ft 196 kts 287°
2026-04-23 03:53 23.13586 113.31116 3915 ft 196 kts 286°
2026-04-23 03:54 23.14046 113.29725 3706 ft 194 kts 286°
2026-04-23 03:54 23.14503 113.28349 3430 ft 194 kts 287°
2026-04-23 03:54 23.14937 113.26961 3161 ft 194 kts 287°
2026-04-23 03:54 23.15560 113.25681 3016 ft 194 kts 319°
2026-04-23 03:55 23.16820 113.25230 3011 ft 199 kts
2026-04-23 03:55 23.18162 113.25684 3027 ft 205 kts 15°
2026-04-23 03:55 23.19530 113.26083 3016 ft 204 kts 13°
2026-04-23 03:55 23.20447 113.26325 3011 ft 205 kts 12°
2026-04-23 03:56 23.22286 113.26815 2937 ft 199 kts 15°
2026-04-23 03:56 23.23606 113.27170 2694 ft 191 kts 15°
2026-04-23 03:56 23.24859 113.27507 2451 ft 182 kts 15°
2026-04-23 03:56 23.26059 113.27830 2223 ft 171 kts 16°
2026-04-23 03:57 23.26792 113.28027 2089 ft 158 kts 15°
2026-04-23 03:57 23.27803 113.28300 1875 ft 141 kts 14°
2026-04-23 03:57 23.28730 113.28551 1703 ft 134 kts 14°
2026-04-23 03:57 23.29623 113.28792 1517 ft 131 kts 14°
2026-04-23 03:58 23.30500 113.29029 1353 ft 129 kts 13°
2026-04-23 03:58 23.31375 113.29265 1178 ft 129 kts 14°
2026-04-23 03:58 23.32250 113.29501 1007 ft 130 kts 13°
2026-04-23 03:58 23.33125 113.29737 837 ft 129 kts 14°
2026-04-23 03:59 23.33990 113.29971 668 ft 127 kts 12°
2026-04-23 03:59 23.34879 113.30210 509 ft 135 kts 11°
2026-04-23 03:59 23.35775 113.30453 320 ft 132 kts 13°
2026-04-23 03:59 23.36657 113.30699 157 ft 130 kts 12°
2026-04-23 04:00 23.37525 113.30929 67 ft 122 kts 13°
2026-04-23 04:00 23.38175 113.31098 53 ft 58 kts 14°
2026-04-23 04:00 23.38410 113.31163 54 ft 30 kts 14°
2026-04-23 04:00 23.38597 113.31209 53 ft 26 kts
2026-04-23 04:01 23.38753 113.31182 56 ft 16 kts 346°
2026-04-23 04:01 23.38830 113.31161 54 ft 0 kts 346°
2026-04-23 04:03 23.38855 113.31155 60 ft 5 kts 347°
2026-04-23 04:03 23.38900 113.31144 55 ft 8 kts 347°
2026-04-23 04:03 23.38965 113.31127 55 ft 11 kts 348°
2026-04-23 04:03 23.39051 113.31135 56 ft 14 kts 14°
2026-04-23 04:04 23.39154 113.31165 53 ft 16 kts 13°
2026-04-23 04:04 23.39269 113.31196 56 ft 18 kts 15°
2026-04-23 04:04 23.39396 113.31230 55 ft 19 kts 13°
2026-04-23 04:04 23.39528 113.31269 53 ft 20 kts 13°
2026-04-23 04:05 23.39655 113.31297 58 ft 18 kts 14°
2026-04-23 04:05 23.39777 113.31333 53 ft 19 kts 14°
2026-04-23 04:05 23.39908 113.31368 54 ft 20 kts 13°
2026-04-23 04:05 23.40045 113.31405 57 ft 20 kts 14°
2026-04-23 04:06 23.40184 113.31442 55 ft 21 kts 13°
2026-04-23 04:06 23.40288 113.31467 54 ft 11 kts
2026-04-23 04:06 23.40319 113.31427 54 ft 7 kts 294°
2026-04-23 04:06 23.40337 113.31385 52 ft 5 kts 291°
2026-04-23 04:07 23.40347 113.31349 55 ft 5 kts 281°
2026-04-23 04:07 23.40358 113.31287 55 ft 11 kts 282°
2026-04-23 04:07 23.40379 113.31205 56 ft 11 kts 286°
2026-04-23 04:07 23.40396 113.31128 57 ft 9 kts 283°
2026-04-23 04:08 23.40397 113.31124 58 ft 0 kts 283°
2026-04-23 04:10 23.40397 113.31123 58 ft 1 kts 283°
2026-04-23 04:10 23.40401 113.31106 51 ft 4 kts 283°
2026-04-23 04:11 23.40414 113.31047 58 ft 12 kts 284°
2026-04-23 04:11 23.40438 113.30946 57 ft 16 kts 283°
2026-04-23 04:11 23.40435 113.30890 58 ft 0 kts 248°
2026-04-23 04:11 23.40432 113.30890 68 ft 0 kts 225°
2026-04-23 04:12 23.40430 113.30891 71 ft 0 kts 197°
2026-04-23 04:12 23.40392 113.30888 54 ft 12 kts 183°
2026-04-23 04:12 23.40275 113.30861 54 ft 22 kts 195°
2026-04-23 04:12 23.40141 113.30826 57 ft 20 kts 195°
2026-04-23 04:13 23.40088 113.30773 58 ft 11 kts 275°
2026-04-23 04:13 23.40108 113.30713 54 ft 0 kts 295°
2026-04-23 04:13 23.40108 113.30712 55 ft 1 kts 294°
2026-04-23 04:13 23.40110 113.30708 56 ft 0 kts 294°
2026-04-23 04:14 23.40110 113.30707 54 ft 0 kts 292°